EST,Max TemperatureF,Mean TemperatureF,Min TemperatureF,Max Dew PointF,MeanDew PointF,Min DewpointF,Max Humidity, Mean Humidity, Min Humidity, Max Sea Level PressureIn, Mean Sea Level PressureIn, Min Sea Level PressureIn, Max VisibilityMiles, Mean VisibilityMiles, Min VisibilityMiles, Max Wind SpeedMPH, Mean Wind SpeedMPH, Max Gust SpeedMPH,PrecipitationIn, CloudCover, Events, WindDirDegrees
2013-2-1,32,26,21,11,6,2,53,41,31,30.12,29.85,29.64,10,10,10,20,14,30,0.00,3,,274
2013-2-2,30,23,16,10,5,1,59,46,35,30.29,30.17,30.05,10,10,10,13,8,21,0.00,2,,238
2013-2-3,26,22,18,23,20,13,100,86,62,30.08,29.87,29.76,10,5,2,8,5,,0.00,8,Snow,333
2013-2-4,28,23,18,21,9,3,96,57,36,29.98,29.85,29.76,10,10,10,22,9,34,0.00,2,,262
2013-2-5,28,24,19,23,13,7,96,65,45,30.06,30.00,29.95,10,8,2,9,4,,0.00,7,Snow,208
2013-2-6,37,29,21,26,18,3,100,70,36,30.33,30.07,29.92,10,8,2,16,4,24,0.01,5,Snow,277
2013-2-7,28,20,12,6,1,-3,74,42,26,30.57,30.50,30.35,10,10,10,14,4,21,0.00,3,,16
2013-2-8,32,24,17,31,22,5,100,92,44,30.51,30.06,29.63,10,3,0,23,9,75,0.30,7,Fog-Snow,22
2013-2-9,21,18,14,18,12,0,100,79,54,30.24,29.82,29.59,10,3,0,29,17,77,0.25,6,Fog-Snow,331
2013-2-10,37,19,1,10,1,-5,92,51,16,30.43,30.37,30.26,10,10,10,14,6,21,0.00,0,,283
2013-2-11,37,22,8,37,28,4,100,94,72,30.38,29.90,29.60,10,4,0,9,1,,0.23,6,Fog-Rain-Snow,236
2013-2-12,43,38,30,34,27,23,100,67,49,29.91,29.74,29.60,10,9,2,24,9,36,0.00,5,,263
2013-2-13,39,34,28,25,23,21,82,67,50,29.90,29.83,29.74,10,10,10,10,6,,0.00,2,,251
2013-2-14,42,35,28,25,21,19,79,59,40,30.02,29.91,29.75,10,10,10,8,4,,0.00,2,,291
2013-2-15,46,37,28,34,29,22,100,78,54,30.03,29.99,29.93,10,8,2,14,6,24,0.00,2,,200
2013-2-16,37,32,27,31,27,17,96,80,52,29.99,29.91,29.77,10,7,1,12,6,,0.01,8,Snow,339
2013-2-17,28,22,16,18,11,-1,93,67,42,29.73,29.52,29.39,10,5,1,32,18,47,0.00,8,Snow,306
2013-2-18,30,21,12,1,-1,-3,54,39,24,30.19,30.00,29.74,10,10,10,26,17,37,0.00,1,,276
2013-2-19,46,34,21,37,22,1,81,60,42,30.20,29.92,29.57,10,9,1,12,6,18,0.23,5,Rain,196
2013-2-20,39,32,25,32,15,-3,82,54,30,29.81,29.67,29.53,10,10,10,25,11,38,0.00,5,Rain,270
2013-2-21,30,26,23,7,-5,-21,37,28,12,30.24,29.93,29.81,10,10,10,22,13,32,0.00,2,,299
2013-2-22,37,29,21,24,10,-17,79,50,16,30.43,30.37,30.28,10,10,10,14,7,,0.00,1,,17
2013-2-23,37,32,27,31,28,22,96,84,65,30.36,30.11,29.93,10,6,2,12,3,,0.11,8,Snow,85
2013-2-24,35,32,30,34,30,28,100,93,87,29.93,29.80,29.69,10,3,1,16,8,24,0.50,8,Rain-Snow,1
2013-2-25,37,32,28,31,29,27,100,86,70,30.28,30.10,29.89,10,9,4,6,3,,0.00,8,Snow,319
2013-2-26,39,32,24,32,26,23,100,85,55,30.37,30.29,30.15,10,5,0,14,2,72,0.00,4,Fog,84
2013-2-27,39,37,35,39,37,29,100,96,76,30.17,29.80,29.56,10,4,2,26,15,38,1.21,8,Rain,59
2013-2-28,44,38,33,36,33,30,100,86,66,29.68,29.59,29.52,10,10,10,7,3,,0.00,8,,291